Погода в Сунтаре

Погода в Сунтаре : погода сейчас, прогноз погоды и архив. Всё, что Вы хотите узнать о погоде в Сунтаре!

Хотите узнать прогноз погоды в Сунтаре? Тогда Вам сюда: Погода в Сунтаре

Поиск расширенной информации на нашем сайте:

Другие новости

Новости СМИ2

Главная страница сайта

Новости сайта

03.07.2017

Напоминаем, что на нашем специализированном сайте Метеоцентр.Азия вы можете получить высокодетализированные автоматические прогнозы погоды по пунктам России, СНГ и мира в авиационном формате (включающие направление и скорость ветра, видимость, явления погоды, количество и форму облачности, нижнюю и верхнюю границу облачности).

Рекомендуем: офисные блоки на выгодных условиях снять офис в бц K2 в Румянцево описание помещений на сайте

Погода в Сунтаре - сегодня

Время (UTC), дата Ветер
(°,м/с) 
Видим.   Явления Облачность Т
(°С)
Тd
(°С)
f(%) Тe
(°С)
Pmin
(гПа)
dP
(гПа)
Po
(мм)
O2
(г/м3)
Тmin Tmax R s Состояние
почвы
21 17.09.17 тихо ()   20000 м    8/0 средняя 
[Ac trans]
+1.5 +0.4 92 +2  1012.7  0.8  747  299           
03 18.09.17 тихо ()   20000 м    10/0 средняя 
[Ac trans]
+6.3 +0.4 66 +6  1014.8  1.2  748  295           
06 18.09.17 210 (ЮЗ) 20000 м    8/3 1000 м средняя 
[Sc|Ac trans]
+10.5 -3 39 +10  1014.4  -0.2  748  291           
09 18.09.17 300 (СЗ) 20000 м    10/4 1000 м средняя 
[Sc|Ac trans]
+8.1 -1 53 +8  1015  0.5  749  293           
15 18.09.17 190 (Ю) 10 км  слаб. дождь  10/0 средняя 
[As op]
+4.6 +0.7 76 +5  1015.9  0.2  749  297           
18 18.09.17 170 (Ю) 10 км  слаб. ливневой дождь  10/8 500 м кучево-дожд., средняя 
[Cb cap|Ac trans]
+3 +2.5 97 +4  1015.9  -0.1  749  298           
21 18.09.17 тихо ()   20000 м  {ливн. осадки}  8/4 600 м кучево-дожд., средняя 
[Cb cap|Ac trans]
+2 +1.7 98 +2  1015.1  -0.8  749  299           
00 19.09.17 200 (Ю) 1000 м  дымка{ливн. осадки}  3/0 верхняя 
[Ci fib]
+1.1 +0.8 98 +2  1015.1  -0.1  748  300  +0.9      влажная 
03 19.09.17 240 (ЮЗ) 20000 м    10/10 270 м 
[St]
+4.5 +3 90 +5  1014.3  -0.5  748  296           
06 19.09.17 340 (С) 20000 м    10/10 450 м 
[St]
+4.9 +2.4 84 +5  1013.9  -0.4  748  296           
09 19.09.17 330 (СЗ) 20000 м    10/4 300 м средняя 
[St|Ac trans]
+5.3 +2.9 84 +5  1013.6  -0.2  748  295           
12 19.09.17 тихо ()   20000 м    10/0 средняя 
[Ac trans]
+4.1 +2.4 89 +4  1013.8  0.1  748  296    +6       
15 19.09.17 тихо ()   20000 м    10/0 средняя 
[Ac trans]
+2.8 +1.2 89 +3  1014.7  0.7  748  298           
18 19.09.17 тихо ()   20000 м    10/0 средняя 
[Ac trans]
+2 +0.7 91 +2  1014.3  -0.4  748  299           
21 19.09.17 290 (З) 20000 м    10/0 средняя 
[Ac trans]
+1.5 +0.1 90 +2  1013.9  -0.4  748  300           
00 20.09.17 290 (З) 20000 м    10/0 средняя 
[Ac trans]
+1.4 -0.8 85 +2  1014.3  0.4  748  300  +1.4        влажная 
03 20.09.17 250 (З) 20000 м    10/8 1410 м средняя 
[Sc|Ac trans]
+2.1 -1 80 +3  1013.7  -0.6  747  299  +1.3         
06 20.09.17 280 (З) 20000 м    9/9 1000 м 
[Cu med, cong]
+6 -0.6 63 +6  1012.7  -0.7  747  295           
09 20.09.17 280 (З) 20000 м    8/8 1470 м 
[Sc diur, vesp]
+6.8 -1.8 54 +7  1012.3  -0.4  747  294           
12 20.09.17 220 (ЮЗ) 20000 м    3/0 средняя 
[Ac trans]
+2.7 -2.5 69 +3  1012.6  747  298    +7.5       
15 20.09.17 240 (ЮЗ) 20000 м    ясно 
-0.4 -5.3 69 1013.2  0.4  747  302           
18 20.09.17 210 (ЮЗ) 20000 м    ясно 
-2.4 -5 82 -2  1012.9  -0.4  747  304           
21 20.09.17 190 (Ю) 20000 м    3/0 
-3.8 -5.3 89 -3  1012.7  -0.2  746  306           
00 21.09.17 200 (Ю) 20000 м    3/0 верхняя 
[Ci fib]
-2 -4.8 81 -1  1012.7  0.1  747  304  -4.2        замёрзшая 
03 21.09.17 180 (Ю) 20000 м    6/0 верхняя 
[Ci fib]
+5.1 -2.8 57 +4  1012.6  0.3  747  296           
Время (UTC), дата Ветер
(°,м/с) 
Видим.   Явления Облачность Т
(°С)
Тd
(°С)
f(%) Тe
(°С)
Pmin
(гПа)
dP
(гПа)
Po
(мм)
O2
(г/м3)
Тmin Tmax R s Состояние
почвы

Для получения пояснительной информации подведите курсор к названию столбца.

ПОГОДА в Сунтаре - архив

Всё, что Вы хотите узнать о погоде в Сунтаре - удобно и подробно!

Выберите нужную дату (начиная с 1 января 2015* года) и нажмите кнопку "Найти".
Будут отображены архивные сводки погоды по пункту Сунтар, начиная с указанной даты.


Отображать данные в формате CSV (для использования в таблицах Excel)


Внимание! Наш архив погоды предназначен исключительно для личного некоммерческого использования в познавательных целях. Если Вам необходимы официальные справки о состоянии погоды (для производственных, юридических, коммерческих и т.п. целей), обращайтесь в органы Росгидромета.

*Примечание: данная дата относится к архиву по метеостанциям СССР (Россия, СНГ, Балтия).
Архив по метеостанциям Зарубежной Европы и Азии (кроме Китая) хранится 10 дней, по другим регионам земного шара (Китай, Африка, Америка, Австралия, Океания) - 1 день.

Сунтар - район местоположения метеостанции


Название, широта, долгота, высота метеостанции:
Сунтар 62.2°ш. 117.6°д. 133 м над ур. моря [Российская Федерация]

Дополнительная информация

В oтличие oт бoльшинства пoгoдных сайтoв мы публикуем пoдрoбную метеoинфoрмацию в детальнoм прoфессиoнальнoм фoрмате.

Характеристики температуры и влажнoсти вoздуха измеряются на высoте 2 м в тени вдали oт зданий и деревьев.
Скoрoсть ветра измеряется на высoте 10 м (на урoвне рoста челoвека скoрoсть ветра ниже в 1.5-2 раза). Если метеoстанция нахoдится в гoрoде или в лесу, тo скoрoсть ветра занижена на 2-4 м/с пo сравнению с oткрытым местoм. Скoрoсть ветра над акватoриями крупных рек и oзёр, а также на вершинах хoлмoв на 2-5 м/с выше, чем в oбычных услoвиях.
Атмoсфернoе давление в разных тoчках местнoсти мoжет значительнo oтличаться oт давления на метеoстанции, в зависимoсти oт услoвий рельефа (при пoдъёме на 10 м давление пoнижается примернo на 1 мм рт.ст.).